Location: Eschentzwiller
(47.7125°N, 7.3981°E)
Time: 04:10:00
(UTC+00:00)

Lacrosse 5 - Pass Details

Date: 27 October 2020
Orbit: 714 x 725 km, 57.0° (Epoch: 30 November)

Event Time Altitude Azimuth Distance (km) Brightness Sun altitude
Rises 18:15:14 0° 294° (WNW) 3,119 6.4 -19.9°
Reaches altitude 10° 18:17:54 10° 306° (NW) 2,198 5.2 -20.3°
Maximum altitude 18:22:18 29° 6° (N) 1,297 3.1 -21.1°
Enters shadow 18:23:33 26° 32° (NNE) 1,390 3.1 -21.3°
